TAN02 VNKT-VNLK

Flight info

Callsign TAN02
Flight time 0h 25m
Altitude 15000
Route IGRIS1E KIMTI
Aircraft C414/L-SDFGRY/C

Departure

Time 2026-04-14 16:52
Airport Tribhuvan International Airport (VNKT)

Arrival

Time 2026-04-14 17:17
Airport Tenzing-Hillary Airport (VNLK)
Time Latitude Longitude Altitude Speed Heading
2026-04-14 15:42 27.70552 85.35993 4383 ft 0 kts 245°
2026-04-14 16:39 27.70551 85.35992 4382 ft 4 kts 234°
2026-04-14 16:39 27.70514 85.36018 4382 ft 6 kts 146°
2026-04-14 16:39 27.70492 85.36111 4382 ft 21 kts 73°
2026-04-14 16:39 27.70426 85.36143 4374 ft 26 kts 199°
2026-04-14 16:40 27.70252 85.36065 4367 ft 20 kts 204°
2026-04-14 16:40 27.70124 85.36006 4371 ft 19 kts 202°
2026-04-14 16:40 27.70002 85.35949 4367 ft 18 kts 201°
2026-04-14 16:40 27.69886 85.35900 4363 ft 17 kts 202°
2026-04-14 16:41 27.69779 85.35850 4360 ft 17 kts 202°
2026-04-14 16:41 27.69694 85.35813 4358 ft 21 kts 200°
2026-04-14 16:41 27.69560 85.35753 4349 ft 20 kts 202°
2026-04-14 16:41 27.69435 85.35693 4349 ft 19 kts 204°
2026-04-14 16:42 27.69316 85.35637 4346 ft 18 kts 200°
2026-04-14 16:42 27.69203 85.35584 4341 ft 17 kts 202°
2026-04-14 16:42 27.69101 85.35550 4338 ft 12 kts 160°
2026-04-14 16:42 27.69093 85.35556 4337 ft 0 kts 135°
2026-04-14 16:46 27.69067 85.35591 4336 ft 12 kts 114°
2026-04-14 16:47 27.69088 85.35654 4338 ft 7 kts 22°
2026-04-14 16:47 27.69095 85.35658 4338 ft 0 kts 21°
2026-04-14 16:50 27.69231 85.35715 4341 ft 50 kts 19°
2026-04-14 16:51 27.69732 85.35935 4359 ft 102 kts 24°
2026-04-14 16:51 27.70512 85.36292 4430 ft 134 kts 20°
2026-04-14 16:51 27.71378 85.36678 4736 ft 141 kts 21°
2026-04-14 16:51 27.72329 85.37148 4983 ft 157 kts 35°
2026-04-14 16:52 27.72890 85.38220 5264 ft 169 kts 84°
2026-04-14 16:52 27.72768 85.39566 5546 ft 176 kts 102°
2026-04-14 16:52 27.72206 85.40799 5833 ft 182 kts 130°
2026-04-14 16:52 27.71375 85.41912 6102 ft 188 kts 131°
2026-04-14 16:53 27.70516 85.43050 6385 ft 193 kts 131°
2026-04-14 16:53 27.69636 85.44209 6655 ft 196 kts 131°
2026-04-14 16:53 27.68746 85.45377 6920 ft 197 kts 131°
2026-04-14 16:53 27.67849 85.46556 7173 ft 199 kts 131°
2026-04-14 16:54 27.66942 85.47751 7427 ft 202 kts 131°
2026-04-14 16:54 27.66021 85.48961 7681 ft 204 kts 131°
2026-04-14 16:54 27.65094 85.50179 7936 ft 205 kts 131°
2026-04-14 16:54 27.64158 85.51406 8189 ft 207 kts 131°
2026-04-14 16:55 27.63216 85.52646 8443 ft 209 kts 131°
2026-04-14 16:55 27.62262 85.53895 8695 ft 211 kts 131°
2026-04-14 16:55 27.61504 85.55308 8939 ft 212 kts 114°
2026-04-14 16:55 27.60941 85.56847 9187 ft 212 kts 112°
2026-04-14 16:56 27.60392 85.58385 9436 ft 211 kts 112°
2026-04-14 16:56 27.59845 85.59924 9681 ft 211 kts 112°
2026-04-14 16:56 27.59300 85.61463 9931 ft 212 kts 112°
2026-04-14 16:56 27.58750 85.63006 10181 ft 212 kts 112°
2026-04-14 16:57 27.58203 85.64548 10435 ft 212 kts 112°
2026-04-14 16:57 27.57653 85.66095 10683 ft 213 kts 112°
2026-04-14 16:57 27.57230 85.67695 10921 ft 213 kts 102°
2026-04-14 16:57 27.56940 85.69338 11178 ft 214 kts 101°
2026-04-14 16:58 27.56658 85.70977 11470 ft 212 kts 101°
2026-04-14 16:58 27.56380 85.72595 11791 ft 209 kts 101°
2026-04-14 16:58 27.56110 85.74177 12106 ft 208 kts 101°
2026-04-14 16:58 27.55839 85.75771 12427 ft 207 kts 101°
2026-04-14 16:59 27.55565 85.77383 12754 ft 207 kts 101°
2026-04-14 16:59 27.55296 85.78976 13073 ft 207 kts 101°
2026-04-14 16:59 27.55032 85.80545 13390 ft 206 kts 101°
2026-04-14 16:59 27.54763 85.82133 13710 ft 206 kts 101°
2026-04-14 17:00 27.54496 85.83722 14041 ft 207 kts 101°
2026-04-14 17:00 27.54225 85.85313 14362 ft 207 kts 101°
2026-04-14 17:00 27.53958 85.86909 14683 ft 207 kts 101°
2026-04-14 17:00 27.53689 85.88525 14981 ft 209 kts 101°
2026-04-14 17:01 27.53531 85.90205 14999 ft 223 kts 93°
2026-04-14 17:01 27.53491 85.91993 15016 ft 233 kts 91°
2026-04-14 17:01 27.53462 85.93819 15009 ft 239 kts 91°
2026-04-14 17:01 27.53435 85.95710 15007 ft 244 kts 91°
2026-04-14 17:02 27.53408 85.97634 15009 ft 247 kts 91°
2026-04-14 17:02 27.53381 85.99571 15009 ft 248 kts 91°
2026-04-14 17:02 27.53356 86.01516 15007 ft 250 kts 91°
2026-04-14 17:02 27.53329 86.03480 15004 ft 250 kts 91°
2026-04-14 17:03 27.53290 86.05442 15003 ft 251 kts 94°
2026-04-14 17:03 27.53088 86.07397 15008 ft 251 kts 101°
2026-04-14 17:03 27.52723 86.09319 15007 ft 251 kts 104°
2026-04-14 17:03 27.52313 86.11230 15007 ft 251 kts 104°
2026-04-14 17:04 27.51896 86.13142 15007 ft 249 kts 104°
2026-04-14 17:04 27.51492 86.15001 15005 ft 240 kts 104°
2026-04-14 17:04 27.51099 86.16807 15000 ft 236 kts 104°
2026-04-14 17:04 27.50712 86.18586 14995 ft 232 kts 104°
2026-04-14 17:05 27.50336 86.20330 14991 ft 225 kts 104°
2026-04-14 17:05 27.49972 86.22014 14991 ft 218 kts 104°
2026-04-14 17:05 27.49615 86.23666 14990 ft 215 kts 104°
2026-04-14 17:05 27.49265 86.25289 14989 ft 213 kts 104°
2026-04-14 17:06 27.49102 86.26917 14990 ft 210 kts 81°
2026-04-14 17:06 27.49642 86.28429 14996 ft 208 kts 62°
2026-04-14 17:06 27.50352 86.29848 14994 ft 208 kts 60°
2026-04-14 17:06 27.51060 86.31276 14998 ft 208 kts 62°
2026-04-14 17:07 27.51717 86.32730 14999 ft 208 kts 66°
2026-04-14 17:07 27.52299 86.34225 14996 ft 209 kts 66°
2026-04-14 17:07 27.52890 86.35719 15000 ft 209 kts 66°
2026-04-14 17:07 27.53485 86.37213 14999 ft 209 kts 65°
2026-04-14 17:08 27.54112 86.38689 14995 ft 209 kts 64°
2026-04-14 17:08 27.54746 86.40156 14994 ft 208 kts 64°
2026-04-14 17:08 27.55381 86.41618 14990 ft 207 kts 64°
2026-04-14 17:08 27.56013 86.43076 14995 ft 206 kts 64°
2026-04-14 17:09 27.56629 86.44496 14991 ft 198 kts 64°
2026-04-14 17:09 27.57229 86.45880 14995 ft 195 kts 64°
2026-04-14 17:09 27.57826 86.47254 14993 ft 194 kts 64°
2026-04-14 17:09 27.58386 86.48545 14980 ft 170 kts 64°
2026-04-14 17:10 27.58878 86.49676 14975 ft 153 kts 64°
2026-04-14 17:10 27.59326 86.50707 14986 ft 142 kts 63°
2026-04-14 17:10 27.59763 86.51714 14968 ft 140 kts 64°
2026-04-14 17:10 27.60173 86.52666 14992 ft 134 kts 63°
2026-04-14 17:11 27.60581 86.53604 14972 ft 131 kts 64°
2026-04-14 17:11 27.60973 86.54508 14988 ft 127 kts 63°
2026-04-14 17:11 27.61352 86.55387 14986 ft 125 kts 64°
2026-04-14 17:11 27.61724 86.56262 15006 ft 125 kts 63°
2026-04-14 17:12 27.62099 86.57175 14838 ft 139 kts 74°
2026-04-14 17:12 27.62096 86.58283 14677 ft 143 kts 111°
2026-04-14 17:12 27.61630 86.59401 13953 ft 171 kts 119°
2026-04-14 17:12 27.61005 86.60625 12912 ft 190 kts 122°
2026-04-14 17:13 27.60340 86.61982 11963 ft 196 kts 112°
2026-04-14 17:13 27.59912 86.63405 11038 ft 197 kts 103°
2026-04-14 17:13 27.59684 86.64876 10106 ft 182 kts 94°
2026-04-14 17:13 27.59743 86.66190 9587 ft 164 kts 75°
2026-04-14 17:14 27.60243 86.67216 9482 ft 140 kts 51°
2026-04-14 17:14 27.60952 86.67881 9516 ft 126 kts 28°
2026-04-14 17:14 27.61734 86.68236 9633 ft 118 kts 18°
2026-04-14 17:14 27.62483 86.68491 9737 ft 113 kts 17°
2026-04-14 17:15 27.63217 86.68768 9820 ft 119 kts 26°
2026-04-14 17:15 27.63959 86.69260 9943 ft 132 kts 28°
2026-04-14 17:15 27.64801 86.69729 9979 ft 146 kts 21°
2026-04-14 17:15 27.65757 86.70179 10023 ft 139 kts 19°
2026-04-14 17:16 27.66665 86.70609 9909 ft 147 kts 28°
2026-04-14 17:16 27.67479 86.71211 9924 ft 139 kts 39°
2026-04-14 17:16 27.68219 86.72065 9373 ft 157 kts 54°
2026-04-14 17:16 27.68688 86.72987 9323 ft 83 kts 78°
2026-04-14 17:17 27.68748 86.73094 9387 ft 5 kts 46°
2026-04-14 17:17 27.68770 86.73116 9402 ft 10 kts 41°
2026-04-14 17:17 27.68764 86.73163 9403 ft 5 kts 138°
2026-04-14 17:17 27.68748 86.73183 9403 ft 2 kts 150°
2026-04-14 17:18 27.68732 86.73182 9403 ft 0 kts 198°
2026-04-14 17:18 27.68737 86.73184 9403 ft 1 kts 198°
2026-04-14 17:18 27.68738 86.73186 9403 ft 0 kts 219°
2026-04-14 17:18 27.68729 86.73171 9403 ft 0 kts 237°